Miscellaneous Local Product
Issued by NWS North Platte, NE

Home | Current Version | Previous Version | Graphics & Text | Print | Product List | Glossary On
Versions: 1 2 3 4 5 6 7 8 9 10 11 12 13 14 15 16 17 18 19 20 21 22 23 24 25 26 27 28 29 30 31 32 33 34 35 36 37 38 39 40 41 42 43 44 45 46 47 48 49 50
423
AXUS43 KLBF 120510
MISLBF


WESTERN AND NORTH CENTRAL NEBRASKA HOURLY WEATHER ROUNDUP
NATIONAL WEATHER SERVICE NORTH PLATTE NE
1100 PM CST THU FEB 11 2016

NOTE: "FAIR" INDICATES FEW OR NO CLOUDS BELOW 12,000 FEET WITH NO
SIGNIFICANT WEATHER AND/OR OBSTRUCTIONS TO VISIBILITY.

NOTE: STATIONS NOT REPORTING VARIABLES SUCH AS SKY/WEATHER OR
PRESSURE ARE PROVIDED BY THE NEBRASKA DEPARTMENT OF
ROADS...RAWS...AND APRS NETWORKS...AND ARE NOT UNDER
NATIONAL WEATHER SERVICE QUALITY CONTROL.

...OBSERVATIONS IN AND NEAR THE EASTERN PANHANDLE OF NEBRASKA...

CITY           SKY/WX    TMP DP  RH WIND       PRES   REMARKS
PINE RIDGE     CLEAR     32  28  85 N7        30.23R WCI  26
CHADRON        CLOUDY    32  27  81 CALM      30.23R
ALLIANCE       PTCLDY    33  27  78 CALM      30.21R
SIDNEY         CLOUDY    35  28  75 W13       30.24R WCI  26
CRESCENT LAKE    N/A     35  25  66 CALM        N/A
BIG SPRINGS      N/A     34  30  85 W3          N/A
$$

...OBSERVATIONS IN NORTH CENTRAL NEBRASKA...

CITY           SKY/WX    TMP DP  RH WIND       PRES   REMARKS
VALENTINE      CLOUDY    29  26  89 N3        30.23R
THEDFORD       CLOUDY    32  30  93 W3        30.22R
AINSWORTH      CLOUDY    29  28  96 N6        30.22R FOG     WCI  23
O`NEILL        CLOUDY    27  26  95 N8        30.23R WCI  19
ORD            CLOUDY    31  27  85 N10       30.21R WCI  22
BROKEN BOW     CLOUDY    33  29  85 NW9       30.20R WCI  25
VALENTINE NWR    N/A     30  28  94 N6          N/A  WCI  24
BUTTE            N/A     23  22  96 W3          N/A
HALSEY           N/A     33  30  88 N5G12       N/A  WCI  28
CHAMBERS         N/A     27  26  94 N3          N/A
EWING            N/A     25  24  95 NW3         N/A
$$

...OBSERVATIONS IN SOUTHWEST NEBRASKA AND FAR NORTHEAST COLORADO...

CITY           SKY/WX    TMP DP  RH WIND       PRES   REMARKS
HOLYOKE        FAIR      45  30  57 NW12G18   30.23S
IMPERIAL       CLOUDY    39  28  64 NW10      30.21R WCI  32
OGALLALA       CLOUDY    36  27  71 CALM      30.22R
NORTH PLATTE   CLEAR     36  29  75 NW7       30.20R WCI  30
MCCOOK         CLOUDY    35  29  78 NW13      30.19R WCI  26
LEXINGTON      CLOUDY    31  27  86 NW7       30.20R WCI  24
PAXTON           N/A     36  30  80 CALM        N/A
STAPLETON        N/A     35  31  84 CALM        N/A
GOTHENBURG       N/A     37  30  75 W3          N/A
CALLAWAY         N/A     38  32  80 N10         N/A  WCI  31
$$

...OBSERVATIONS IN CENTRAL LINCOLN COUNTY AREA...

CITY           SKY/WX    TMP DP  RH WIND       PRES   REMARKS
N.P. AIRPORT   CLEAR     36  29  75 NW7       30.20R WCI  30
N.P. DOWNTOWN    N/A     38  32  79 N5          N/A  WCI  34
N.P. SOUTHEAST   N/A     39  32  76 N5          N/A
N.P. HILLCREST   N/A     38  32  80 NE15        N/A  WCI  29
$$

...SOME OBSERVATIONS FROM AROUND THE REGION...

CITY           SKY/WX    TMP DP  RH WIND       PRES   REMARKS
DENVER         PTCLDY    36  26  67 S15       30.26S WCI  27
LARAMIE        CLOUDY    32  22  66 W8        30.28S WCI  25
CHEYENNE       CLOUDY    35  24  64 NW5       30.26S WCI  31
SCOTTSBLUFF    CLEAR     32  26  78 NW7       30.23R WCI  26
RAPID CITY     CLOUDY    31  28  89 N6        30.24R WCI  25
BISMARCK       CLOUDY    19  12  74 N3        30.30R
PIERRE         CLOUDY    27  24  89 NW7       30.24R WCI  19
WINNER         FAIR      27  23  85 CALM      30.22S
SIOUX FALLS    LGT SNOW  10   7  87 NW6       30.23R WCI   0
OMAHA          CLOUDY    25  19  78 NE3       30.22S
GRAND ISLAND   CLEAR     32  27  81 NW16      30.20R WCI  21
KANSAS CITY    PTCLDY    28  20  71 E7        30.17F WCI  21
WICHITA        PTCLDY    35  26  69 CALM      30.18R
OKLAHOMA CITY  CLEAR     43  32  65 N7        30.18R
LIBERAL        CLOUDY    43  25  49 N7        30.20R
HAYS           CLEAR     32  21  64 W7        30.16S WCI  26
GOODLAND       CLOUDY    35  28  75 W9        30.23R WCI  28
$$




USA.gov is the U.S. government's official web portal to all federal, state and local government web resources and services.